Last 48 Hours

Stanford Met Tower

Hourly Data | America/Los_Angeles
as of 9/3/26 6:53 AM PDT
Date & Time Temp (°F) RH (%) Dew Pt (°F) Wind Dir (°) Wind Spd (mph) Wind Gust (mph) Solar Rad (W/m2) Pressure (mb) NowCast AQI Value (AQI) NowCast AQI Status Latest Rain (In) Daily Rain (In) Daily Min Temp (°F) Daily Max Temp (°F)
9/3/26 - 0600 52.4 88 49.9 SSW | 204 5.1 7.6 0 1,018.1 21 Good 0.00 0.00 51.8 54.9
9/3/26 - 0500 52.4 88 49.8 SSW | 213 3.3 6.9 0 1,018.2 21 Good 0.00 0.00 52.0 54.9
9/3/26 - 0400 53.2 87 50.4 SW | 216 2.6 7.9 0 1,018.7 21 Good 0.00 0.00 52.8 54.9
9/3/26 - 0300 53.9 86 50.9 SSW | 207 4.1 9.2 0 1,018.6 21 Good 0.00 0.00 53.2 54.9
9/3/26 - 0200 54.2 87 51.5 SSW | 210 3.3 6.1 0 1,019.2 21 Good 0.00 0.00 53.5 54.9
9/3/26 - 0100 54.9 86 51.7 SSW | 204 4.1 6.9 0 1,019.3 21 Good 0.00 0.00 54.1 74.5
9/3/26 - 0000 55.5 87 52.8 SSW | 211 1.6 6.0 0 1,019.2 21 Good 0.00 0.00 54.4 74.5
9/2/26 - 2300 56.7 87 53.8 SSW | 199 1.5 5.9 0 1,019.1 21 Good 0.00 0.00 54.4 74.5
9/2/26 - 2200 60.0 79 54.3 N | 7 0.2 4.9 0 1,019.3 21 Good 0.00 0.00 54.4 74.5
9/2/26 - 2100 63.4 66 52.9 SSW | 196 1.2 4.7 0 1,018.7 21 Good 0.00 0.00 54.4 74.5
9/2/26 - 2000 66.3 59 52.5 SW | 229 3.0 9.5 17 1,018.0 21 Good 0.00 0.00 54.4 74.5
9/2/26 - 1900 70.5 49 51.5 WSW | 242 5.7 12.0 168 1,017.6 21 Good 0.00 0.00 54.4 74.5
9/2/26 - 1800 72.7 48 52.5 W | 259 6.7 14.1 349 1,017.5 21 Good 0.00 0.00 54.4 74.5
9/2/26 - 1700 73.0 55 56.6 WSW | 242 9.8 18.7 538 1,017.3 21 Good 0.00 0.00 54.4 74.5
9/2/26 - 1600 73.3 58 58.6 SW | 232 9.8 20.4 682 1,017.3 21 Good 0.00 0.00 54.4 74.5
9/2/26 - 1500 71.8 64 59.9 SW | 235 10.0 21.1 739 1,017.5 21 Good 0.00 0.00 54.4 73.8
9/2/26 - 1400 71.0 66 60.2 SW | 224 10.5 20.9 811 1,018.1 21 Good 0.00 0.00 54.4 72.7
9/2/26 - 1300 70.7 63 58.5 SW | 218 7.8 16.9 379 1,018.9 21 Good 0.00 0.00 54.4 72.7
9/2/26 - 1200 71.0 62 58.2 SSW | 202 7.1 15.0 507 1,019.0 21 Good 0.00 0.00 54.4 72.7
9/2/26 - 1100 69.8 65 58.5 SSW | 207 5.8 15.8 481 1,018.9 21 Good 0.00 0.00 54.4 72.1
9/2/26 - 1000 67.0 66 56.2 SE | 136 2.5 12.5 337 1,019.1 21 Good 0.00 0.00 54.4 69.2
9/2/26 - 0900 60.6 76 53.9 ESE | 111 1.0 5.1 176 1,019.5 21 Good 0.00 0.00 54.4 64.5
9/2/26 - 0800 57.4 83 53.4 ESE | 116 2.4 6.6 17 1,019.4 21 Good 0.00 0.00 54.4 58.2
9/2/26 - 0700 57.1 83 53.2 ESE | 121 0.3 5.2 2 1,019.2 21 Good 0.00 0.00 54.4 57.8
9/2/26 - 0600 56.1 86 52.9 ESE | 119 1.2 5.3 0 1,019.0 21 Good 0.00 0.00 54.4 57.5
9/2/26 - 0500 56.0 85 52.6 SE | 129 2.1 7.1 0 1,018.9 21 Good 0.00 0.00 54.4 57.5
9/2/26 - 0400 55.8 87 53.1 SSE | 166 1.4 6.8 0 1,019.2 21 Good 0.00 0.00 54.4 57.5
9/2/26 - 0300 55.3 88 52.9 SSE | 159 1.6 6.9 0 1,019.1 21 Good 0.00 0.00 54.4 57.5
9/2/26 - 0200 56.3 83 52.2 SSW | 206 2.5 6.1 0 1,019.1 21 Good 0.00 0.00 55.0 57.5
9/2/26 - 0100 59.5 76 53.0 SE | 146 4.4 9.1 0 1,019.2 21 Good 0.00 0.00 53.0 72.7
9/2/26 - 0000 58.0 82 53.4 SSE | 160 2.5 9.1 0 1,019.2 21 Good 0.00 0.00 53.0 72.7
9/1/26 - 2300 60.8 76 54.2 SW | 221 2.7 12.1 0 1,018.9 21 Good 0.00 0.00 53.0 72.7
9/1/26 - 2200 61.5 76 54.7 SW | 220 3.0 11.3 0 1,019.4 21 Good 0.00 0.00 53.0 72.7
9/1/26 - 2100 62.8 72 54.8 SW | 231 6.1 14.1 0 1,019.1 21 Good 0.00 0.00 53.0 72.7
9/1/26 - 2000 63.8 66 53.3 WSW | 244 7.1 16.0 9 1,018.6 21 Good 0.00 0.00 53.0 72.7
9/1/26 - 1900 66.8 57 52.0 WSW | 240 7.7 17.9 166 1,018.1 21 Good 0.00 0.00 53.0 72.7
9/1/26 - 1800 68.2 55 52.1 WSW | 241 10.0 17.7 365 1,017.6 21 Good 0.00 0.00 53.0 72.7
9/1/26 - 1700 68.7 53 51.6 W | 270 10.8 20.2 550 1,017.4 21 Good 0.00 0.00 53.0 72.7
9/1/26 - 1600 70.5 49 51.1 WSW | 258 10.3 21.8 708 1,017.2 21 Good 0.00 0.00 53.0 72.7
9/1/26 - 1500 70.7 50 52.3 NW | 309 5.4 18.6 824 1,016.7 21 Good 0.00 0.00 53.0 72.7
9/1/26 - 1400 70.9 47 50.6 SSW | 212 4.3 13.4 827 1,016.9 21 Good 0.00 0.00 53.0 72.7
9/1/26 - 1300 68.2 51 50.4 WSW | 245 3.6 11.8 603 1,017.9 21 Good 0.00 0.00 53.0 70.3
9/1/26 - 1200 65.9 57 51.4 N | 11 2.3 7.9 424 1,018.5 21 Good 0.00 0.00 53.0 67.3
9/1/26 - 1100 64.2 61 51.4 WNW | 287 1.7 5.9 224 1,018.9 21 Good 0.00 0.00 53.0 65.1
9/1/26 - 1000 63.4 61 50.5 WSW | 237 1.2 6.0 192 1,018.5 21 Good 0.00 0.00 53.0 64.4
9/1/26 - 0900 62.2 64 50.7 SW | 225 2.0 7.0 122 1,018.6 21 Good 0.00 0.00 53.0 63.4
9/1/26 - 0800 60.8 68 51.1 SSW | 211 2.8 6.5 46 1,018.2 21 Good 0.00 0.00 53.0 62.0
9/1/26 - 0700 60.4 68 50.8 SW | 220 3.3 8.8 2 1,017.4 21 Good 0.00 0.00 53.0 61.1
9/1/26 - 0600 60.2 69 51.1 SSW | 204 4.6 9.7 0 1,017.0 21 Good 0.00 0.00 53.0 60.8
Max 73.3 88 60.2 - 10.8 21.8 827 1,019.5 21 - 0.00 0.00 55.0 74.5
Avg 62.8 70 53.2 - 4.4 11.0 210 1,018.5 21 - 0.00 - - -
Min 52.4 47 49.8 - 0.2 4.7 0 1,016.7 21 - 0.00 0.00 51.8 54.9
Total - - - - - - - - - - 0.00 - - -